Home   Weather   Heide   Past weeks

Flag for Germany Past Weather in Heide, Schleswig-Holstein, Germany — Yesterday and Last 2 Weeks

Now
45 °F

Quite cool.


Feels Like: 39 °F
Forecast: 46 / 49 °F
Wind: 10 mph from Southwest

Location: Hohn

Current Time: Dec 9, 2016 at 1:14:32 am

Latest Report: Dec 9, 2016 at 12:20 am


Visibility: 1 mi

Pressure: 30.15 "Hg

Humidity: 93%

Dew Point: 43 °F

Location of HeideLocation

Past Weather in Heide — Graph

°F

Heide Temperature Yesterday

Maximum temperature yesterday: 48 °F (at 11:20 am)
Minimum temperature yesterday: 43 °F (at 10:20 pm)
Average temperature yesterday: 46 °F

High & Low Weather Summary for the Past Weeks

 TemperatureHumidityPressure
High48 °F (Nov 26, 6:20 pm)100% (Nov 24, 7:20 am)30.54 "Hg (Nov 24, 7:20 am)
Low19 °F (Nov 29, 3:20 am)53% (Nov 27, 2:20 pm)29.89 "Hg (Dec 1, 6:20 pm)
Average37 °F86%30.25 "Hg
* Reported Nov 23 11:20 pm — Dec 8 11:20 pm, Heide, Weather by CustomWeather, © 2016

Note: Actual official high and low records may vary slightly from our data, if they occured in-between our weather recording intervals... More about our weather records

Advertising

Heide Weather History for the Previous 24 Hours

Scroll right to see more
 ConditionsComfort  
Time TempWeatherWind HumidityBarometerVisibility
11:20 pm
Thu, Dec 8
43 °FQuite cool.12 mph100%30.15 "Hg1 mi
10:20 pm43 °FQuite cool.12 mph93%30.15 "Hg1 mi
9:20 pm45 °FDrizzle. Fog.12 mph87%30.18 "Hg3 mi
9:03 pm45 °FDrizzle. Fog.10 mph87%30.15 "Hg3 mi
8:20 pm45 °FPassing clouds.8 mph87%30.15 "Hg4 mi
7:20 pm46 °FPassing clouds.10 mph82%30.15 "Hg6 mi
6:20 pm46 °FPassing clouds.12 mph87%30.12 "Hg4 mi
5:50 pm45 °FFog.9 mph93%30.15 "Hg2 mi
5:20 pm45 °FFog.10 mph93%30.15 "Hg2 mi
5:00 pm46 °FDrizzle. Fog.13 mph87%30.15 "Hg2 mi
4:20 pm46 °FDrizzle. Fog.13 mph93%30.15 "Hg1 mi
3:20 pm46 °FFog.13 mph93%30.15 "Hg3 mi
2:20 pm46 °FFog.13 mph93%30.15 "Hg3 mi
1:20 pm46 °FFog.17 mph93%30.15 "Hg3 mi
1:00 pm46 °FFog.16 mph93%30.15 "Hg3 mi
12:20 pm46 °FLow clouds.16 mph87%30.15 "Hg4 mi
11:20 am48 °FLow clouds.14 mph87%30.18 "Hg4 mi
10:20 am46 °FLow clouds.14 mph87%30.18 "Hg4 mi
9:20 am46 °FPartly sunny.16 mph87%30.18 "Hg4 mi
8:20 am46 °FPassing clouds.15 mph87%30.18 "HgN/A
7:20 am46 °FPassing clouds.14 mph82%30.18 "HgN/A
6:20 am45 °FPassing clouds.16 mph81%30.15 "HgN/A
5:20 am45 °FPassing clouds.17 mph81%30.15 "HgN/A
4:20 am45 °FQuite cool.16 mph81%30.15 "Hg5 mi
3:20 am45 °FQuite cool.17 mph81%30.18 "Hg5 mi
2:20 am45 °FQuite cool.17 mph81%30.18 "Hg5 mi
1:20 am45 °FQuite cool.16 mph81%30.18 "Hg6 mi
Weather by CustomWeather, © 2016

See weather overviewHow to use our weather pages